Home > Weather > Arnsberg > Past weeks

Flag for Germany Weather for the Past 2 Weeks in Arnsberg, North Rhine-Westphalia, Germany

Now
50 °F

Partly sunny.


Feels Like: 44 °F
Forecast: 42 / 49 °F
Wind: 18 mph from Southwest

Location: Dortmund / Wickede

Current Time: Feb 6, 2016 at 1:32:39 PM

Latest Report: Feb 6, 2016 at 12:50 PM


Visibility: N/A

Pressure: 29.83 "Hg

Humidity: 67%

Dew point: 39 °F

Location of ArnsbergLocation

Historic Weather in Arnsberg — Graph

°F

Arnsberg Temperature Yesterday

Maximum temperature yesterday: 48 °F (at 4:50 PM)
Minimum temperature yesterday: 37 °F (at 5:20 AM)
Average temperature yesterday: 44 °F

High & Low Weather Summary for the Past Weeks

 TemperatureHumidityPressure
High54 °F (Jan 25, 3:20 PM)94% (Feb 1, 7:20 AM)30.54 "Hg (Feb 1, 7:20 AM)
Low34 °F (Jan 22, 12:20 PM)52% (Jan 22, 1:20 PM)29.68 "Hg (Jan 30, 1:20 PM)
Average44 °F77%30.10 "Hg
* Reported Jan 22 12:20 PM — Feb 6 12:20 PM, Arnsberg, Weather by CustomWeather, © 2016

Note: Actual official high and low records may vary slightly from our data, if they occured in-between our weather recording intervals... More about our weather records

Advertising

Arnsberg Weather History for the Previous 24 Hours

 ConditionsComfort  
Time TempWeatherWind HumidityBarometerVisibility
12:20 PM
Sat, Feb 6
48 °FPartly sunny.20 mph71%29.86 "HgN/A
11:50 AM48 °FScattered clouds.18 mph71%29.86 "HgN/A
11:20 AM48 °FSunny.17 mph71%29.86 "Hg10 mi
10:50 AM48 °FSunny.17 mph71%29.86 "Hg10 mi
10:20 AM46 °FSunny.17 mph76%29.86 "Hg10 mi
9:50 AM46 °FSunny.16 mph71%29.89 "Hg10 mi
9:20 AM45 °FSunny.15 mph76%29.89 "Hg10 mi
8:50 AM45 °FQuite cool.13 mph76%29.92 "HgN/A
8:20 AM45 °FSunny.13 mph76%29.92 "Hg10 mi
7:50 AM45 °FClear.14 mph76%29.89 "Hg10 mi
7:20 AM46 °FClear.15 mph71%29.89 "Hg10 mi
6:50 AM46 °FClear.12 mph71%29.92 "Hg10 mi
6:20 AM46 °FPassing clouds.12 mph71%29.92 "HgN/A
5:50 AM46 °FClear.18 mph76%29.92 "Hg10 mi
10:50 PM
Fri, Feb 5
48 °FPassing clouds.14 mph76%30.09 "HgN/A
10:20 PM48 °FPassing clouds.12 mph76%30.09 "HgN/A
9:50 PM48 °FPassing clouds.10 mph76%30.09 "HgN/A
9:20 PM48 °FPassing clouds.13 mph82%30.09 "HgN/A
8:50 PM48 °FPassing clouds.12 mph82%30.09 "HgN/A
8:20 PM48 °FPassing clouds.10 mph82%30.12 "HgN/A
7:50 PM48 °FPassing clouds.10 mph82%30.12 "HgN/A
7:20 PM48 °FPassing clouds.8 mph82%30.12 "HgN/A
6:50 PM46 °FPartly cloudy.8 mph87%30.12 "HgN/A
6:20 PM46 °FPassing clouds.12 mph87%30.15 "HgN/A
5:50 PM48 °FPassing clouds.14 mph76%30.15 "HgN/A
5:20 PM46 °FPartly sunny.13 mph87%30.15 "HgN/A
4:50 PM48 °FBroken clouds.13 mph82%30.15 "Hg6 mi
4:20 PM46 °FPartly sunny.13 mph87%30.15 "Hg6 mi
3:50 PM46 °FPartly sunny.13 mph87%30.15 "Hg6 mi
3:20 PM46 °FPartly sunny.12 mph87%30.15 "Hg6 mi
2:50 PM46 °FPartly sunny.15 mph87%30.15 "Hg6 mi
2:20 PM46 °FLight rain. Partly sunny.15 mph87%30.18 "HgN/A
1:50 PM46 °FDrizzle. Fog.13 mph87%30.18 "Hg2 mi
1:20 PM45 °FDrizzle. Fog.15 mph87%30.18 "Hg2 mi
Weather by CustomWeather, © 2016

See weather overviewHow to use our weather pages